GW7423 Weather Reports


Display with metric or nautical units.
time (UTC)temp
F
wind
direction
speed
MPH
gust
MPH
rain 1hr
in
rain 24hr
in
rain mn
in
humidity
%
barometer
mb
20260906031306 79 239 2.0 4.0 0.00 0.03 0.00 75 998.6
20260906030806 80 215 2.0 4.0 0.00 0.03 0.00 73 998.6
20260906030306 80 218 0.0 4.0 0.00 0.03 0.00 72 999.0
20260906025806 80 73 1.0 5.0 0.00 0.03 0.00 73 999.0
20260906025306 80 84 2.0 6.0 0.00 0.03 0.00 73 999.0
20260906024806 80 106 6.0 6.0 0.00 0.03 0.00 73 999.0
20260906024306 80 119 3.0 7.0 0.00 0.03 0.00 72 999.3
20260906023806 80 215 2.0 7.0 0.00 0.03 0.00 73 999.3
20260906023306 80 83 6.0 6.0 0.00 0.03 0.00 73 999.3
20260906022806 80 149 1.0 6.0 0.00 0.03 0.00 73 999.3
20260906022307 80 121 4.0 6.0 0.00 0.03 0.00 72 999.3
20260906021806 81 227 2.0 6.0 0.00 0.03 0.00 72 999.3
20260906021306 81 264 0.0 8.0 0.00 0.03 0.00 72 999.0
20260906020806 81 160 0.0 8.0 0.00 0.03 0.00 72 999.0
20260906020305 81 325 1.0 7.0 0.00 0.03 0.00 73 999.0
20260906015806 81 334 1.0 5.0 0.00 0.03 0.00 73 999.0
20260906015306 81 76 3.0 6.0 0.00 0.03 0.00 74 999.3
20260906014806 80 208 3.0 6.0 0.00 0.03 0.00 74 999.0
20260906014304 81 54 4.0 12.0 0.00 0.03 0.00 74 999.0
20260906013806 81 56 2.0 12.0 0.00 0.03 0.00 74 999.3
20260906013306 81 58 7.0 12.0 0.00 0.03 0.00 73 999.0
20260906012806 84 49 8.0 12.0 0.00 0.03 0.00 67 998.6
20260906012306 85 47 4.0 5.0 0.00 0.03 0.00 62 998.6
20260906011806 85 4 2.0 4.0 0.00 0.03 0.00 62 998.6
20260906011306 85 23 1.0 3.0 0.00 0.03 0.00 62 998.6
20260906010806 85 309 0.0 2.0 0.00 0.03 0.00 62 998.6
20260906010306 86 292 2.0 2.0 0.00 0.03 0.00 61 998.6
20260906005806 86 268 0.0 3.0 0.00 0.03 0.00 61 998.3
20260906005306 86 260 0.0 3.0 0.00 0.03 0.00 60 998.3
20260906004806 86 322 2.0 4.0 0.00 0.03 0.00 61 998.3
20260906004306 86 287 2.0 4.0 0.00 0.03 0.00 61 998.6
20260906003805 86 280 2.0 3.0 0.00 0.03 0.00 61 998.3
20260906003306 87 269 1.0 3.0 0.00 0.03 0.00 59 998.6
20260906002806 87 274 0.0 3.0 0.00 0.03 0.00 58 998.6
20260906002306 88 298 2.0 4.0 0.00 0.03 0.00 57 998.3
20260906001806 87 9 0.0 4.0 0.00 0.03 0.00 57 999.0
20260906001306 87 4 2.0 4.0 0.00 0.03 0.00 57 998.6
20260906000806 87 315 0.0 3.0 0.00 0.03 0.00 57 999.0
20260906000305 88 224 0.0 2.0 0.00 0.03 0.00 57 999.0
20260905235806 88 333 0.0 2.0 0.00 0.03 0.03 57 998.6
20260905235307 88 251 1.0 2.0 0.00 0.03 0.03 57 999.0
20260905234805 88 322 0.0 2.0 0.00 0.03 0.03 57 999.0
20260905234306 88 243 0.0 3.0 0.00 0.03 0.03 57 999.0
20260905233805 88 1 0.0 3.0 0.00 0.03 0.03 56 999.0
20260905233306 89 261 1.0 3.0 0.00 0.03 0.03 57 998.6
20260905232806 89 269 2.0 3.0 0.00 0.03 0.03 55 999.0
20260905232306 89 290 0.0 4.0 0.00 0.03 0.03 55 999.0
20260905231805 89 3.0 4.0 0.00 0.03 0.03 54 999.3
20260905231306 89 300 3.0 4.0 0.00 0.03 0.03 54 999.0
20260905230805 89 349 1.0 5.0 0.00 0.03 0.03 53 999.0
20260905230306 90 296 3.0 6.0 0.00 0.03 0.03 53 999.0
20260905225806 90 334 3.0 6.0 0.00 0.03 0.03 52 999.0
20260905225306 90 359 3.0 5.0 0.00 0.03 0.03 52 999.0
20260905224806 91 307 2.0 6.0 0.00 0.03 0.03 51 999.0
20260905224306 91 359 3.0 6.0 0.00 0.03 0.03 51 999.0
20260905223806 91 13 4.0 7.0 0.00 0.03 0.03 50 999.0
20260905223306 91 312 4.0 11.0 0.00 0.03 0.03 50 999.0
20260905222806 91 345 5.0 11.0 0.00 0.03 0.03 50 999.0
20260905222307 91 2 10.0 11.0 0.00 0.03 0.03 50 999.0
20260905221806 91 359 5.0 9.0 0.00 0.03 0.03 50 999.0
20260905221306 91 336 6.0 9.0 0.00 0.03 0.03 49 998.6
20260905220805 92 309 7.0 9.0 0.00 0.03 0.03 48 999.0
20260905220305 93 7 6.0 9.0 0.00 0.03 0.03 47 999.0
20260905215806 94 339 2.0 7.0 0.00 0.03 0.03 47 999.0
20260905215306 93 253 3.0 8.0 0.00 0.03 0.03 46 999.0
20260905214806 94 256 7.0 9.0 0.00 0.03 0.03 46 999.0
20260905214306 93 250 5.0 9.0 0.00 0.03 0.03 47 999.0
20260905213806 93 263 3.0 8.0 0.00 0.03 0.03 47 999.0
20260905213306 93 242 5.0 9.0 0.00 0.03 0.03 46 998.6
20260905212806 93 261 7.0 9.0 0.00 0.03 0.03 46 999.0
20260905212306 93 287 3.0 7.0 0.00 0.03 0.03 47 998.6
20260905211806 93 299 5.0 10.0 0.00 0.03 0.03 46 998.6
20260905211305 92 272 5.0 10.0 0.00 0.03 0.03 48 998.6
20260905210806 94 234 6.0 9.0 0.00 0.03 0.03 46 999.0
20260905210305 93 302 3.0 7.0 0.00 0.03 0.03 48 999.0
20260905205806 93 263 3.0 7.0 0.00 0.03 0.03 48 998.6
20260905205306 92 263 3.0 8.0 0.00 0.03 0.03 48 998.6
20260905204806 93 264 5.0 8.0 0.00 0.03 0.03 47 998.6
20260905204306 92 316 6.0 9.0 0.00 0.03 0.03 49 999.0
20260905203806 92 256 5.0 9.0 0.00 0.03 0.03 48 999.0
20260905203306 93 298 2.0 8.0 0.00 0.03 0.03 48 999.0
20260905202806 91 314 5.0 10.0 0.00 0.03 0.03 50 999.0
20260905202306 91 273 6.0 10.0 0.00 0.03 0.03 50 999.3
20260905201806 92 261 7.0 9.0 0.00 0.03 0.03 49 999.3
20260905201306 92 246 6.0 9.0 0.00 0.03 0.03 48 999.3
20260905200806 91 320 5.0 9.0 0.00 0.03 0.03 48 999.3
20260905200306 92 297 2.0 9.0 0.00 0.03 0.03 48 999.7
20260905195805 93 271 8.0 9.0 0.00 0.03 0.03 48 999.7
20260905195307 91 262 3.0 8.0 0.00 0.03 0.03 49 999.7
20260905194805 91 264 5.0 10.0 0.00 0.03 0.03 49 999.7
20260905194305 90 250 3.0 10.0 0.00 0.03 0.03 51 999.7
20260905193804 90 245 7.0 10.0 0.00 0.03 0.03 51 999.7
20260905193304 91 250 3.0 7.0 0.00 0.03 0.03 50 999.7
20260905192805 91 231 3.0 11.0 0.00 0.03 0.03 50 999.7
20260905192306 90 291 3.0 11.0 0.00 0.03 0.03 51 999.7
20260905191806 90 247 6.0 9.0 0.00 0.03 0.03 51 1000.0
20260905191304 90 246 5.0 9.0 0.00 0.03 0.03 53 1000.0
20260905190805 90 219 5.0 8.0 0.00 0.03 0.03 51 1000.0
20260905190305 90 191 7.0 9.0 0.00 0.03 0.03 52 1000.0
20260905185805 89 227 5.0 9.0 0.00 0.03 0.03 52 1000.4
20260905185306 89 222 4.0 8.0 0.00 0.03 0.03 53 1000.4
20260905184805 90 192 5.0 8.0 0.00 0.03 0.03 52 1000.4
20260905184305 89 230 0.0 8.0 0.00 0.03 0.03 52 1000.7
20260905183804 88 265 4.0 8.0 0.00 0.03 0.03 52 1000.7
20260905183304 89 263 3.0 10.0 0.00 0.03 0.03 52 1001.1
20260905182805 89 209 1.0 10.0 0.00 0.03 0.03 52 1000.7
20260905182306 89 248 4.0 9.0 0.00 0.03 0.03 55 1000.7
20260905181805 87 182 3.0 11.0 0.00 0.03 0.03 56 1001.1
20260905181305 86 201 1.0 11.0 0.00 0.03 0.03 57 1001.1
20260905180805 86 267 7.0 12.0 0.00 0.03 0.03 56 1000.7
20260905180305 88 234 6.0 12.0 0.00 0.03 0.03 57 1001.1
20260905175805 87 188 3.0 11.0 0.00 0.03 0.03 58 1000.7
20260905175306 87 220 5.0 13.0 0.00 0.03 0.03 58 1001.1
20260905174805 86 198 4.0 13.0 0.00 0.03 0.03 59 1001.4
20260905174305 86 257 7.0 11.0 0.00 0.03 0.03 60 1001.1
20260905173804 86 196 8.0 11.0 0.00 0.03 0.03 61 1001.4
20260905173304 86 253 8.0 11.0 0.00 0.03 0.03 59 1001.4
20260905172805 86 205 7.0 12.0 0.00 0.03 0.03 59 1001.4
20260905172305 84 190 5.0 13.0 0.00 0.03 0.03 63 1001.4
20260905171804 85 223 3.0 13.0 0.00 0.03 0.03 62 1001.4
20260905171307 86 183 8.0 13.0 0.00 0.03 0.03 59 1001.4
20260905170805 86 209 6.0 12.0 0.00 0.03 0.03 57 1001.1
20260905170305 84 221 7.0 12.0 0.00 0.03 0.03 58 1001.4
20260905165805 84 159 6.0 10.0 0.00 0.03 0.03 59 1001.4
20260905165306 84 189 5.0 11.0 0.00 0.03 0.03 59 1001.4
20260905164804 84 223 5.0 11.0 0.00 0.03 0.03 61 1001.4
20260905164305 84 181 3.0 10.0 0.00 0.03 0.03 59 1001.4
20260905163804 84 225 5.0 10.0 0.00 0.03 0.03 60 1001.8
20260905163305 83 236 3.0 9.0 0.00 0.03 0.03 62 1001.8
20260905162804 82 172 5.0 9.0 0.00 0.03 0.03 64 1001.8
20260905162306 82 204 4.0 9.0 0.00 0.03 0.03 65 1001.8
20260905161805 83 211 5.0 9.0 0.00 0.03 0.03 65 1001.8
20260905161304 84 199 0.0 9.0 0.00 0.03 0.03 62 1001.8
20260905160805 84 231 3.0 6.0 0.00 0.03 0.03 63 1001.8
20260905160304 83 268 5.0 6.0 0.00 0.03 0.03 63 1002.1
20260905155805 83 81 6.0 8.0 0.00 0.03 0.03 64 1002.1
20260905155306 84 216 3.0 8.0 0.00 0.03 0.03 61 1001.8
20260905154804 83 213 4.0 7.0 0.00 0.03 0.03 63 1002.1
20260905154305 82 72 1.0 7.0 0.00 0.03 0.03 65 1002.1
20260905153804 82 166 3.0 7.0 0.00 0.03 0.03 65 1002.1
20260905153305 81 44 4.0 7.0 0.00 0.03 0.03 66 1002.5
20260905152805 80 121 3.0 9.0 0.00 0.03 0.03 69 1002.5
20260905152306 80 103 4.0 9.0 0.00 0.03 0.03 70 1002.1
20260905151804 80 267 1.0 6.0 0.00 0.03 0.03 70 1002.1
20260905151304 79 133 4.0 11.0 0.00 0.03 0.03 71 1002.5
20260905150803 79 99 4.0 11.0 0.00 0.03 0.03 72 1002.5
20260905150304 79 85 8.0 10.0 0.00 0.03 0.03 72 1002.5
20260905145805 78 182 4.0 8.0 0.00 0.03 0.03 74 1002.1
20260905145306 77 140 6.0 13.0 0.00 0.03 0.03 75 1002.8
20260905144804 77 31 3.0 13.0 0.00 0.03 0.03 76 1002.5
20260905144304 76 56 9.0 13.0 0.00 0.03 0.03 77 1002.5
20260905143805 76 282 3.0 13.0 0.00 0.03 0.03 79 1002.8
20260905143304 75 68 9.0 15.0 0.00 0.03 0.03 80 1002.5
20260905142805 75 106 0.0 15.0 0.00 0.03 0.03 80 1002.8
20260905142306 75 148 4.0 14.0 0.00 0.03 0.03 81 1002.8
20260905141804 74 153 7.0 14.0 0.00 0.03 0.03 82 1002.8
20260905141304 74 137 8.0 14.0 0.00 0.03 0.03 82 1002.8
20260905140805 74 224 3.0 15.0 0.00 0.03 0.03 83 1002.8
20260905140305 74 173 2.0 15.0 0.00 0.03 0.03 82 1002.8
20260905135805 75 36 4.0 13.0 0.00 0.03 0.03 81 1003.2
20260905135306 74 20 5.0 15.0 0.00 0.03 0.03 82 1003.2
20260905134804 74 57 8.0 16.0 0.00 0.03 0.03 82 1003.2
20260905134305 74 46 9.0 16.0 0.00 0.03 0.03 81 1002.8
20260905133805 75 316 3.0 15.0 0.00 0.03 0.03 81 1003.2
20260905133304 75 159 1.0 15.0 0.00 0.03 0.03 81 1003.2
20260905132805 74 79 5.0 15.0 0.00 0.03 0.03 82 1002.8
20260905132306 74 29 7.0 15.0 0.00 0.03 0.03 82 1003.5
20260905131804 74 33 9.0 15.0 0.00 0.03 0.03 83 1003.2
20260905131304 75 37 6.0 13.0 0.00 0.03 0.03 83 1003.2
20260905130804 75 42 3.0 11.0 0.00 0.03 0.03 83 1002.8
20260905130305 75 53 6.0 7.0 0.00 0.03 0.03 82 1002.5
20260905125804 75 38 4.0 6.0 0.00 0.03 0.03 82 1002.5
20260905125306 75 38 3.0 8.0 0.00 0.03 0.03 82 1002.8
20260905124805 75 9 3.0 9.0 0.00 0.03 0.03 83 1002.8
20260905124305 75 93 2.0 11.0 0.00 0.03 0.03 84 1002.5
20260905123804 75 28 5.0 11.0 0.00 0.03 0.03 85 1002.8
20260905123305 75 36 2.0 7.0 0.00 0.03 0.03 85 1002.5
20260905122805 75 40 3.0 6.0 0.00 0.03 0.03 85 1002.5
20260905122306 75 54 3.0 7.0 0.00 0.03 0.03 84 1002.1
20260905121804 75 80 3.0 12.0 0.00 0.03 0.03 84 1002.1
20260905121305 75 38 4.0 12.0 0.00 0.03 0.03 84 1002.1
20260905120804 76 29 7.0 13.0 0.00 0.03 0.03 86 1002.1
20260905120304 76 10 9.0 13.0 0.00 0.03 0.03 87 1002.5
20260905115805 75 34 7.0 15.0 0.00 0.03 0.03 89 1002.5
20260905115306 76 31 7.0 15.0 0.00 0.03 0.03 88 1002.5
20260905114804 75 21 3.0 4.0 0.00 0.04 0.03 89 1001.8
20260905114304 75 315 1.0 5.0 0.00 0.04 0.03 90 1001.8
20260905113804 75 262 1.0 5.0 0.00 0.04 0.03 90 1001.4
20260905113304 75 247 2.0 4.0 0.00 0.04 0.03 89 1001.4
20260905112804 75 303 2.0 5.0 0.00 0.04 0.03 89 1001.4
20260905112306 75 243 2.0 5.0 0.00 0.04 0.03 89 1000.7
20260905111804 75 47 0.0 5.0 0.00 0.04 0.03 89 1001.1
20260905111304 75 247 2.0 4.0 0.00 0.04 0.03 89 1001.1
20260905110804 75 205 2.0 5.0 0.00 0.04 0.03 89 1000.7
20260905110304 75 246 2.0 6.0 0.00 0.04 0.03 89 1000.7
20260905105804 75 197 4.0 8.0 0.00 0.04 0.03 88 1000.7
20260905105306 75 192 4.0 8.0 0.00 0.04 0.03 88 1000.7
20260905104804 75 202 5.0 5.0 0.00 0.04 0.03 88 1000.7
20260905104305 75 233 3.0 5.0 0.00 0.04 0.03 89 1000.7
20260905103805 75 229 3.0 5.0 0.00 0.04 0.03 89 1000.7
20260905103304 75 194 1.0 5.0 0.00 0.04 0.03 89 1000.7
20260905102804 75 228 2.0 6.0 0.00 0.04 0.03 89 1000.7
20260905102306 75 216 4.0 6.0 0.00 0.04 0.03 89 1000.7
20260905101805 75 204 5.0 6.0 0.00 0.04 0.03 89 1001.1
20260905101304 75 206 3.0 5.0 0.00 0.04 0.03 89 1000.7
20260905100804 75 194 2.0 4.0 0.00 0.04 0.03 88 1001.1
20260905100304 75 222 0.0 5.0 0.00 0.04 0.03 88 1000.7
20260905095805 75 227 2.0 5.0 0.00 0.04 0.03 88 1000.7
20260905095306 76 215 2.0 5.0 0.00 0.04 0.03 87 1000.7
20260905094804 76 199 3.0 4.0 0.00 0.04 0.03 87 1000.7
20260905094304 76 217 3.0 4.0 0.00 0.04 0.03 87 1000.4
20260905093804 76 224 2.0 4.0 0.00 0.04 0.03 86 1000.7
20260905093305 76 196 3.0 5.0 0.00 0.04 0.03 86 1000.7
20260905092805 76 186 3.0 5.0 0.00 0.04 0.03 86 1000.4
20260905092306 76 156 1.0 6.0 0.00 0.04 0.03 86 1000.4
20260905091804 77 205 4.0 6.0 0.00 0.04 0.03 86 1000.4
20260905091305 76 166 2.0 5.0 0.00 0.04 0.03 86 1000.4
20260905090804 76 195 2.0 6.0 0.00 0.04 0.03 86 1000.0
20260905090304 76 223 4.0 6.0 0.01 0.04 0.03 87 1000.4
20260905085805 76 203 2.0 5.0 0.01 0.04 0.03 87 1000.0
20260905085306 76 178 3.0 5.0 0.01 0.04 0.03 87 1000.4
20260905084804 76 184 2.0 4.0 0.01 0.04 0.03 88 1000.4
20260905084305 76 218 2.0 5.0 0.00 0.04 0.03 88 1000.4
20260905083804 76 218 1.0 5.0 0.00 0.04 0.03 87 1000.4
20260905083304 77 247 2.0 6.0 0.00 0.04 0.03 85 1000.4
20260905082804 77 217 3.0 6.0 0.00 0.04 0.03 84 1000.4
20260905082307 77 197 4.0 6.0 0.00 0.04 0.03 85 1000.4
20260905081805 77 204 5.0 6.0 0.00 0.04 0.03 85 1000.0
20260905081304 77 182 3.0 6.0 0.00 0.04 0.03 84 1000.0
20260905080804 77 218 3.0 5.0 0.00 0.04 0.03 84 1000.4
20260905080303 77 213 3.0 7.0 0.00 0.04 0.03 84 1000.4
20260905075804 77 200 2.0 7.0 0.00 0.04 0.03 85 1000.4
20260905075306 77 250 3.0 5.0 0.00 0.04 0.03 85 1000.7
20260905074804 77 230 2.0 5.0 0.00 0.04 0.03 84 1000.7
20260905074304 78 213 4.0 5.0 0.00 0.04 0.03 83 1000.4
20260905073805 78 185 2.0 7.0 0.00 0.04 0.03 83 1000.7
20260905073304 78 173 5.0 7.0 0.00 0.05 0.03 84 1000.7
20260905072804 78 219 2.0 7.0 0.00 0.05 0.03 84 1000.7
20260905072306 78 175 3.0 7.0 0.00 0.05 0.03 84 1000.7
20260905071804 78 198 4.0 7.0 0.00 0.05 0.03 83 1000.7
20260905071304 78 202 2.0 7.0 0.00 0.05 0.03 82 1001.1
20260905070805 78 204 5.0 8.0 0.00 0.05 0.03 82 1000.7
20260905070304 78 218 0.0 8.0 0.00 0.05 0.03 82 1001.1
20260905065804 78 141 1.0 8.0 0.00 0.05 0.03 83 1001.1
20260905065306 78 175 3.0 8.0 0.00 0.05 0.03 83 1001.1
20260905064804 78 184 3.0 6.0 0.00 0.05 0.03 82 1001.1
20260905064305 78 210 4.0 6.0 0.00 0.05 0.03 83 1001.1
20260905063804 79 162 2.0 4.0 0.00 0.05 0.03 83 1001.1
20260905063304 79 85 2.0 5.0 0.00 0.05 0.03 83 1001.4
20260905062804 78 38 3.0 5.0 0.00 0.05 0.03 82 1001.4
20260905062306 79 52 2.0 5.0 0.00 0.05 0.03 82 1001.4
20260905061804 79 245 3.0 5.0 0.00 0.05 0.03 81 1001.4
20260905061304 79 95 1.0 7.0 0.00 0.05 0.03 81 1001.8
20260905060804 79 184 1.0 7.0 0.00 0.05 0.03 82 1001.8
20260905060305 79 204 2.0 5.0 0.00 0.05 0.03 81 1001.8
20260905055805 79 263 2.0 5.0 0.00 0.05 0.03 81 1001.8
20260905055306 79 187 4.0 5.0 0.00 0.05 0.02 83 1001.8
20260905054804 79 118 3.0 4.0 0.00 0.05 0.02 83 1001.4
20260905054304 79 63 3.0 4.0 0.00 0.05 0.02 83 1001.8
20260905053804 79 6 1.0 3.0 0.00 0.05 0.02 83 1001.8
20260905053304 79 110 0.0 3.0 0.00 0.05 0.02 84 1001.8
20260905052804 78 196 1.0 3.0 0.00 0.05 0.02 84 1001.8
20260905052306 78 121 1.0 4.0 0.00 0.05 0.02 85 1001.8
20260905051804 78 89 1.0 4.0 0.00 0.05 0.02 85 1002.1
20260905051305 78 70 0.0 3.0 0.00 0.05 0.02 85 1002.1
20260905050805 78 48 1.0 8.0 0.00 0.05 0.02 85 1001.8
20260905050304 78 75 1.0 8.0 0.00 0.05 0.02 85 1002.1
20260905045804 81 48 5.0 8.0 0.00 0.05 0.02 79 1002.1
20260905045306 81 19 2.0 3.0 0.01 0.05 0.02 76 1002.1
20260905044804 81 181 2.0 4.0 0.01 0.05 0.02 76 1001.8
20260905044304 81 211 3.0 4.0 0.01 0.05 0.02 76 1001.8
20260905043804 81 218 2.0 4.0 0.01 0.05 0.02 76 1001.8
20260905043303 81 220 2.0 5.0 0.01 0.05 0.02 76 1001.8
20260905042804 81 214 3.0 5.0 0.01 0.05 0.02 76 1001.8
20260905042307 82 216 3.0 5.0 0.01 0.05 0.02 76 1001.8
20260905041804 81 212 4.0 5.0 0.01 0.05 0.02 77 1001.8
20260905041305 80 207 4.0 5.0 0.01 0.05 0.02 81 1001.8
20260905040804 80 226 3.0 5.0 0.01 0.05 0.02 81 1001.8
20260905040306 80 211 3.0 6.0 0.01 0.05 0.02 81 1001.8
20260905035804 81 202 4.0 6.0 0.01 0.05 0.02 81 1001.8
20260905035306 81 238 2.0 6.0 0.01 0.05 0.02 80 1002.1
20260905034804 81 216 5.0 5.0 0.01 0.05 0.02 80 1002.1
20260905034305 81 154 0.0 5.0 0.01 0.05 0.02 80 1002.1
20260905033805 80 162 2.0 5.0 0.01 0.05 0.02 82 1002.1
20260905033305 81 201 2.0 5.0 0.01 0.05 0.02 81 1002.1
20260905032804 81 214 2.0 5.0 0.01 0.05 0.01 80 1002.1
20260905032306 81 192 4.0 5.0 0.01 0.05 0.01 79 1001.8
20260905031805 81 195 3.0 5.0 0.00 0.04 0.01 80 1001.8